QPF
0.00 0.00 0.00 0.00 0.00 0.00 0.00 0.00 0.00 0.00 0.00 0.00 0.00 0.00 0.00 0.00 0.00 0.00 0.00 0.00 0.00 0.00 0.00 0.00 0.00 0.00 0.00
0.00 0.00 0.00 0.00 0.00 0.00 0.00 0.00 0.00 0.00 0.00 0.00 0.00 0.00 0.00 0.00 0.00 0.00 0.00 0.00 0.00 0.00 0.00 0.00 0.00 0.00 0.00
0.00 0.00 0.00 0.00 0.00 0.00 0.00 0.00 0.00 0.00 0.00 0.00 0.00 0.00 0.00 0.00 0.00 0.00 0.00 0.00 0.00 0.00 0.00 0.00 0.00 0.00 0.00
0.00 0.00 0.00 0.00 0.00 0.00 0.00 0.00 0.00 0.00 0.00 0.00 0.00 0.00 0.00 0.00 0.00 0.00 0.00 0.00 0.00 0.00 0.00 0.00 0.00 0.00 0.00
0.00 0.00 0.00 0.00 0.00 0.00 0.00 0.00 0.00 0.00 0.00 0.00 0.00 0.00 0.00 0.00 0.00 0.00 0.00 0.00 0.00 0.00 0.00 0.00 0.00 0.00 0.00
0.00 0.00 0.00 0.00 0.00 0.00 0.00 0.00 0.00 0.00 0.00 0.00 0.00 0.00 0.00 0.00 0.00 0.00 0.00 0.00 0.00 0.00 0.00 0.00 0.00 0.00 0.00
0.00 0.00 0.00 0.00 0.00 0.00 0.00 0.00 0.00 0.00 0.00 0.00 0.00 0.00 0.00 0.00 0.00 0.00 0.00 0.00 0.00 0.00 0.00 0.00 0.00 0.00 0.00
0.00 0.00 0.00 0.00 0.00 0.00 0.00 0.00 0.00 0.00 0.00 0.00 0.00 0.00 0.00 0.00 0.00 0.00 0.00 0.00 0.00 0.00 0.00 0.00 0.00 0.00 0.00
0.00 0.00 0.00 0.00 0.00 0.00 0.00 0.00 0.00 0.00 0.00 0.00 0.00 0.00 0.00 0.00 0.00 0.00 0.00 0.00 0.00 0.00 0.00 0.00 0.00 0.00 0.00
0.00 0.00 0.00 0.00 0.00 0.00 0.00 0.00 0.00 0.00 0.00 0.00 0.00 0.00 0.00 0.00 0.00 0.00 0.00 0.00 0.00 0.00 0.00 0.00 0.00 0.00 0.00
0.00 0.00 0.00 0.00 0.00 0.00 0.00 0.00 0.00 0.00 0.00 0.00 0.00 0.00 0.00 0.00 0.00 0.00 0.00 0.00 0.00 0.00 0.00 0.00 0.00 0.00 0.00
0.00 0.00 0.00 0.00 0.00 0.00 0.00 0.00 0.00 0.00 0.00 0.00 0.00 0.00 0.00 0.00 0.00 0.00 0.00 0.00 0.00 0.00 0.00 0.00 0.00 0.00 0.00
0.00 0.00 0.00 0.00 0.00 0.00 0.00 0.00 0.00 0.00 0.00 0.00 0.00 0.00 0.01 0.01 0.00 0.00 0.00 0.00 0.00 0.00 0.00 0.00 0.00 0.00 0.00
0.00 0.00 0.00 0.00 0.00 0.00 0.00 0.00 0.00 0.00 0.00 0.00 0.00 0.00 0.00 0.00 0.00 0.00 0.00 0.00 0.00 0.00 0.00 0.00 0.00 0.00 0.00
0.00 0.00 0.00 0.00 0.00 0.00 0.00 0.00 0.00 0.00 0.00 0.00 0.00 0.00 0.00 0.00 0.00 0.00 0.00 0.00 0.00 0.00 0.00 0.00 0.00 0.00 0.00
0.00 0.00 0.00 0.00 0.00 0.00 0.00 0.00 0.00 0.00 0.00 0.00 0.00 0.00 0.00 0.00 0.00 0.00 0.00 0.00 0.00 0.00 0.00 0.00 0.00 0.00 0.00
0.00 0.00 0.00 0.00 0.00 0.00 0.00 0.00 0.00 0.00 0.00 0.00 0.00 0.00 0.01 0.00 0.00 0.00 0.00 0.00 0.00 0.00 0.00 0.00 0.00 0.00 0.00
MSLP
1025.60 1025.96 1025.97 1026.04 1026.15 1026.25 1026.56 1026.55 1026.58 1026.58 1026.66 1026.51 1026.57 1026.62 1026.60 1026.54 1026.53 1026.54 1026.48 1026.45 1026.32 1026.10 1025.87 1025.80 1025.70 1025.62 1025.48
1025.46 1025.95 1026.27 1026.36 1026.46 1026.54 1026.58 1026.53 1026.80 1026.74 1026.61 1026.57 1026.61 1026.67 1026.70 1026.68 1026.61 1026.52 1026.42 1026.35 1026.32 1026.24 1026.06 1026.03 1025.97 1025.76 1025.52
1025.38 1025.84 1026.32 1026.29 1026.58 1026.75 1026.92 1026.95 1026.92 1026.94 1026.89 1026.96 1026.94 1026.77 1026.77 1026.69 1026.61 1026.45 1026.35 1026.33 1026.30 1026.27 1026.21 1026.13 1025.97 1025.72 1025.43
1025.40 1025.78 1026.27 1026.86 1026.86 1026.76 1026.85 1026.95 1026.96 1027.09 1027.19 1027.15 1026.89 1026.81 1026.75 1026.64 1026.52 1026.41 1026.33 1026.32 1026.23 1026.09 1025.91 1025.74 1025.59 1025.43 1025.20
1025.60 1026.05 1026.40 1026.75 1026.83 1027.01 1027.00 1027.17 1027.21 1027.46 1027.11 1026.81 1026.71 1026.53 1026.46 1026.48 1026.43 1026.37 1026.24 1025.98 1025.85 1025.75 1025.65 1025.52 1025.31 1025.19 1024.94
1026.04 1026.01 1026.38 1026.71 1027.01 1027.01 1027.23 1027.17 1027.07 1027.56 1027.20 1026.67 1026.87 1026.36 1026.26 1026.24 1026.22 1025.94 1025.76 1025.80 1025.76 1025.55 1025.45 1025.41 1025.25 1025.03 1024.81
1025.75 1026.07 1026.39 1026.69 1026.92 1027.23 1027.39 1027.43 1027.32 1027.25 1027.21 1026.44 1026.52 1026.14 1026.07 1026.02 1025.95 1025.67 1025.48 1025.45 1025.52 1025.48 1025.32 1025.13 1024.92 1024.66 1024.39
1026.00 1026.25 1026.56 1026.75 1026.95 1027.21 1027.46 1027.50 1027.37 1027.34 1027.32 1026.64 1026.58 1026.07 1025.91 1025.91 1025.96 1025.44 1025.20 1025.19 1025.38 1025.31 1025.03 1024.81 1024.59 1024.29 1023.95
1026.26 1026.35 1026.53 1026.55 1026.90 1027.24 1027.37 1027.39 1027.08 1027.15 1027.33 1027.06 1026.67 1026.38 1025.99 1025.74 1025.66 1025.59 1025.53 1025.46 1025.30 1025.09 1024.85 1024.52 1024.22 1023.87 1023.45
1026.66 1026.84 1026.92 1026.61 1027.06 1027.23 1027.47 1027.43 1027.32 1027.17 1027.45 1027.40 1027.02 1026.81 1026.03 1025.74 1025.59 1025.56 1025.39 1025.29 1025.04 1024.77 1024.44 1024.17 1023.93 1023.52 1023.23
1026.75 1026.96 1027.06 1027.12 1027.31 1027.45 1027.58 1027.64 1027.50 1027.46 1027.24 1027.39 1027.20 1026.97 1026.74 1026.16 1025.49 1025.34 1025.26 1024.92 1024.58 1024.24 1024.03 1023.83 1023.67 1023.42 1022.91
1026.76 1026.82 1026.96 1027.20 1027.41 1027.49 1027.46 1027.45 1027.47 1027.58 1027.48 1027.54 1027.27 1027.15 1026.98 1026.49 1025.66 1025.07 1024.94 1024.72 1024.41 1024.00 1023.65 1023.41 1023.19 1022.88 1022.59
1026.60 1026.69 1026.93 1027.10 1027.26 1027.38 1027.45 1027.36 1027.26 1027.24 1027.16 1027.12 1026.99 1027.00 1027.00 1026.65 1025.90 1025.06 1024.75 1023.70 1023.84 1023.60 1023.35 1023.02 1022.65 1022.32 1021.95
1026.50 1026.72 1026.90 1027.00 1027.05 1027.16 1027.21 1027.14 1027.02 1026.80 1026.77 1026.87 1026.97 1027.10 1026.66 1026.27 1025.92 1024.90 1024.62 1024.36 1023.10 1022.96 1022.85 1022.44 1022.03 1021.64 1021.21
1026.39 1026.49 1026.53 1026.78 1026.84 1026.90 1026.93 1026.86 1026.74 1026.47 1026.39 1026.42 1026.38 1026.25 1026.01 1025.80 1025.20 1024.33 1023.78 1023.30 1022.86 1022.51 1022.44 1021.64 1020.98 1020.62 1020.23
1026.19 1026.20 1026.26 1026.39 1026.52 1026.63 1026.66 1026.53 1026.36 1026.25 1026.15 1026.11 1026.06 1025.79 1025.02 1023.78 1023.81 1023.29 1023.07 1022.76 1022.34 1021.97 1021.74 1021.18 1020.01 1019.52 1019.18
1025.86 1025.97 1026.08 1026.12 1026.09 1026.16 1026.14 1026.09 1025.93 1025.86 1025.73 1025.84 1025.79 1025.72 1024.98 1023.98 1022.89 1022.68 1022.57 1022.15 1021.75 1021.16 1020.84 1020.32 1019.62 1018.64 1018.44
Thickness
5533 5528 5523 5516 5511 5506 5500 5497 5493 5490 5485 5482 5478 5473 5469 5466 5463 5460 5457 5453 5452 5451 5451 5450 5449 5448 5447
5525 5518 5510 5505 5500 5495 5492 5489 5484 5481 5477 5473 5469 5465 5460 5457 5453 5450 5447 5445 5443 5440 5438 5436 5434 5434 5435
5515 5508 5500 5496 5490 5486 5483 5479 5475 5471 5468 5463 5459 5455 5450 5447 5443 5440 5437 5434 5432 5429 5426 5424 5423 5422 5422
5507 5500 5492 5483 5481 5480 5476 5471 5467 5462 5458 5454 5451 5445 5440 5436 5432 5429 5426 5423 5420 5417 5415 5414 5412 5411 5410
5496 5488 5482 5478 5475 5468 5466 5461 5457 5452 5449 5446 5441 5436 5431 5427 5422 5418 5414 5413 5410 5407 5404 5402 5401 5399 5398
5480 5481 5474 5469 5463 5461 5456 5453 5454 5441 5438 5437 5429 5427 5422 5416 5411 5408 5406 5402 5398 5396 5393 5390 5389 5387 5385
5476 5471 5467 5461 5456 5450 5446 5441 5438 5433 5428 5429 5421 5418 5411 5405 5401 5398 5396 5393 5388 5385 5383 5380 5378 5376 5374
5466 5461 5456 5452 5447 5441 5436 5431 5427 5422 5416 5417 5409 5407 5400 5394 5389 5388 5386 5382 5378 5375 5373 5370 5367 5365 5362
5455 5452 5447 5444 5438 5432 5428 5423 5421 5414 5405 5400 5396 5391 5388 5384 5380 5376 5372 5369 5367 5364 5362 5359 5357 5354 5351
5445 5441 5437 5434 5428 5423 5416 5413 5408 5404 5394 5387 5382 5376 5377 5372 5367 5364 5361 5359 5357 5355 5352 5349 5345 5342 5338
5436 5432 5427 5423 5417 5411 5406 5400 5396 5391 5384 5376 5370 5365 5360 5359 5356 5353 5350 5348 5347 5345 5343 5338 5332 5328 5328
5428 5424 5419 5413 5407 5401 5396 5390 5384 5378 5372 5366 5360 5353 5349 5346 5346 5342 5337 5335 5334 5332 5330 5326 5321 5319 5318
5421 5416 5411 5404 5398 5392 5386 5380 5375 5369 5363 5357 5351 5345 5339 5335 5335 5332 5329 5330 5325 5321 5317 5313 5311 5310 5310
5413 5407 5401 5396 5390 5384 5378 5372 5365 5362 5357 5350 5343 5335 5330 5327 5323 5322 5318 5315 5318 5313 5308 5304 5302 5302 5304
5405 5400 5395 5387 5382 5375 5369 5363 5356 5352 5346 5341 5336 5330 5325 5320 5316 5315 5312 5309 5308 5305 5299 5299 5296 5296 5299
5397 5393 5387 5380 5374 5367 5360 5354 5348 5342 5334 5328 5322 5320 5320 5321 5312 5309 5303 5300 5298 5295 5292 5292 5293 5292 5296
5390 5385 5379 5372 5366 5359 5353 5346 5340 5333 5325 5316 5309 5303 5305 5305 5305 5295 5290 5287 5286 5286 5284 5284 5287 5288 5290